Location: Crescent
(42.8242°N, 73.7329°W)
Time: 12:32:03
(UTC+00:00)

Tiros 1 - Pass Details

Date: 25 February 2026
Orbit: 618 x 650 km, 48.4° (Epoch: 16 March)

Event Time Altitude Azimuth Distance (km) Brightness Sun altitude
Rises 14:01:50 0° 287° (WNW) 2,917 10.0 23.1°
Reaches altitude 10° 14:04:16 10° 295° (WNW) 2,004 9.2 23.5°
Maximum altitude 14:08:40 43° 7° (N) 883 7.9 24.1°
Drops below altitude 10° 14:13:01 10° 79° (E) 1,986 10.3 24.7°
Sets 14:15:25 0° 86° (E) 2,888 11.1 25.0°
